Location: Mentone
(34.5413°N, 85.5351°W)
Time: 06:38:29
(UTC-05:00)

ATLAS 5 CENTAUR R/B - Visible Passes

Search period start: 18 April 2015 00:00
Search period end: 28 April 2015 00:00
Orbit: 701 x 961 km, 63.4° (Epoch: 15 April)

Date Brightness Start Highest point End Pass type
(mag) Time Alt. Az. Time Alt. Az. Time Alt. Az.
18 Apr 3.9 20:10:27 10° N 20:14:43 20° NE 20:18:20 13° E visible
18 Apr 2.4 21:54:00 10° NW 21:59:55 73° WSW 21:59:55 73° WSW visible
19 Apr 4.0 19:51:50 10° N 19:55:56 19° NE 20:00:21 10° E visible
19 Apr 2.3 21:35:16 10° NW 21:41:22 78° WSW 21:42:09 68° S visible
20 Apr 2.4 21:16:32 10° NNW 21:22:39 82° WSW 21:24:28 49° SSE visible
20 Apr 4.9 23:05:18 10° W 23:06:04 11° W 23:06:04 11° W visible
21 Apr 2.4 20:57:48 10° NNW 21:03:56 87° WSW 21:06:50 35° SSE visible
21 Apr 4.8 22:45:55 10° W 22:48:12 12° WSW 22:48:26 12° WSW visible
22 Apr 2.4 20:39:06 10° NNW 20:45:13 89° ENE 20:49:17 24° SSE visible
22 Apr 4.7 22:26:45 10° W 22:29:30 13° WSW 22:30:54 11° WSW visible
23 Apr 2.4 20:20:22 10° NNW 20:26:29 84° ENE 20:31:49 15° SSE visible
23 Apr 4.8 22:07:41 10° W 22:10:48 14° WSW 22:13:26 10° SW visible
24 Apr 2.4 20:01:39 10° NNW 20:07:46 80° ENE 20:14:07 10° SSE visible
24 Apr 4.8 21:48:40 10° WNW 21:52:06 15° WSW 21:55:12 10° SW visible
25 Apr 2.5 19:42:56 10° NNW 19:49:02 75° ENE 19:55:22 10° SE visible
25 Apr 4.8 21:29:41 10° WNW 21:33:24 16° WSW 21:36:49 10° SW visible
26 Apr 4.7 21:10:44 10° WNW 21:14:41 17° WSW 21:18:24 10° SSW visible
27 Apr 4.7 20:51:49 10° WNW 20:55:59 18° WSW 20:59:56 10° SSW visible
